Temp
78 77 75 75 75 75 75 75 75 74 74 75 75 74 74 72 69 72 73 69 76 75 76 76 76 76 76 77 77 77 77 77 77
78 76 75 75 75 75 75 75 74 74 74 74 74 73 72 70 73 74 70 72 75 75 77 76 76 76 77 77 77 77 77 77 78
77 76 75 75 75 74 74 74 74 74 74 73 72 71 70 71 71 73 66 73 76 76 77 76 76 77 76 76 76 76 77 77 77
76 75 75 74 74 74 73 73 73 73 72 72 71 71 70 66 70 73 66 73 76 76 76 76 76 76 76 76 76 76 76 75 76
74 73 73 74 73 73 72 72 72 72 72 72 71 70 69 64 68 65 66 74 75 76 76 75 76 76 75 74 75 75 75 75 75
71 70 71 72 72 72 72 72 72 71 70 71 71 70 66 66 66 63 70 73 75 76 75 75 75 74 74 73 73 73 73 73 73
72 68 69 71 71 71 72 72 72 71 66 65 69 65 66 64 63 62 71 73 75 73 73 73 72 73 73 72 72 72 72 72 72
68 64 65 65 66 65 68 66 67 66 65 64 64 64 63 61 59 65 70 73 73 72 71 71 71 71 71 71 70 70 70 70 70
67 67 68 68 66 67 66 65 66 65 65 63 63 62 61 60 58 61 67 69 70 71 70 69 69 69 69 69 69 69 69 69 69
68 67 67 66 66 65 64 63 63 62 63 62 62 61 60 60 58 55 64 66 67 68 68 68 68 68 69 69 68 68 68 68 68
67 65 65 64 64 63 62 61 59 59 59 60 60 59 59 60 58 56 57 64 65 65 66 66 66 67 67 68 67 67 67 66 67
65 63 63 62 63 62 60 59 59 57 59 57 58 59 58 58 60 57 56 57 62 63 64 64 65 65 65 66 66 66 66 65 65
63 62 61 62 61 59 57 56 55 54 53 53 55 55 58 58 58 59 56 55 57 60 63 64 64 64 64 64 65 64 64 63 63
63 61 60 61 58 56 57 54 53 51 51 54 54 54 54 56 62 57 57 56 55 54 61 62 62 63 63 64 64 63 62 62 62
61 64 60 59 56 55 54 53 52 51 50 58 57 54 54 55 54 55 59 55 55 53 53 51 52 61 62 62 62 61 61 61 60
62 63 59 57 55 54 55 53 51 49 49 49 50 51 53 53 53 53 54 54 54 53 51 50 49 50 59 59 60 60 60 59 59
65 62 56 55 53 53 52 51 50 49 48 45 45 44 48 51 54 51 54 51 52 52 53 51 50 48 47 50 58 58 59 58 58
64 62 56 53 51 49 50 49 49 46 47 48 45 41 40 42 48 50 50 51 47 49 49 51 50 49 47 50 50 56 57 56 57
62 61 58 52 51 50 49 51 48 47 45 46 52 46 44 39 37 45 46 47 49 47 46 47 48 48 46 51 53 55 55 56 57
61 60 57 51 50 49 49 48 47 47 45 44 43 43 43 42 38 35 39 44 46 46 46 45 46 48 47 45 49 54 55 55 55
MSLP
1015.23 1015.56 1015.90 1016.23 1016.34 1016.46 1016.50 1016.52 1016.46 1016.48 1016.57 1016.63 1016.61 1016.60 1016.52 1016.37 1016.24 1016.00 1016.13 1016.47 1016.58 1016.73 1016.80 1016.66 1016.66 1016.58 1016.54 1016.56 1016.49 1016.35 1016.40 1016.57 1016.71
1015.24 1015.67 1015.96 1016.22 1016.38 1016.47 1016.54 1016.49 1016.56 1016.53 1016.63 1016.67 1016.70 1016.59 1016.51 1016.42 1016.01 1015.98 1016.29 1016.42 1016.57 1016.62 1016.54 1016.52 1016.46 1016.32 1016.28 1016.22 1016.35 1016.19 1016.09 1016.22 1016.38
1015.26 1015.74 1016.06 1016.25 1016.42 1016.48 1016.50 1016.52 1016.61 1016.69 1016.68 1016.71 1016.68 1016.62 1016.52 1016.35 1016.27 1016.04 1016.53 1016.61 1016.49 1016.48 1016.41 1016.40 1016.31 1016.23 1016.23 1016.11 1015.98 1015.92 1015.88 1015.94 1016.05
1015.31 1015.76 1016.05 1016.30 1016.48 1016.58 1016.55 1016.68 1016.68 1016.74 1016.84 1016.82 1016.69 1016.56 1016.49 1016.51 1016.25 1016.36 1016.65 1016.59 1016.46 1016.48 1016.38 1016.35 1016.33 1016.24 1016.20 1016.23 1016.00 1015.86 1015.76 1015.74 1015.81
1015.42 1015.77 1016.07 1016.31 1016.48 1016.63 1016.72 1016.76 1016.80 1016.77 1016.77 1016.68 1016.59 1016.51 1016.49 1016.58 1016.41 1016.78 1016.75 1016.57 1016.54 1016.50 1016.43 1016.36 1016.33 1016.33 1016.30 1016.42 1016.26 1015.95 1015.75 1015.73 1015.75
1015.53 1015.86 1016.09 1016.27 1016.46 1016.58 1016.77 1016.73 1016.79 1016.77 1016.79 1016.69 1016.57 1016.55 1016.65 1016.55 1016.70 1016.95 1016.81 1016.61 1016.48 1016.52 1016.34 1016.48 1016.52 1016.55 1016.51 1016.66 1016.71 1016.51 1016.25 1016.15 1016.14
1015.44 1015.88 1016.14 1016.26 1016.41 1016.57 1016.67 1016.63 1016.62 1016.74 1016.72 1016.77 1016.84 1016.79 1016.78 1016.84 1017.12 1017.15 1016.87 1016.67 1016.53 1016.79 1016.78 1016.77 1016.88 1016.97 1016.84 1016.91 1017.05 1016.94 1016.71 1016.52 1016.44
1015.41 1015.85 1016.03 1016.36 1016.36 1016.50 1016.47 1016.76 1016.62 1016.77 1016.72 1016.91 1017.03 1016.96 1016.94 1017.05 1017.42 1017.35 1017.10 1016.87 1016.82 1017.10 1017.27 1017.32 1017.25 1017.27 1017.26 1017.25 1017.30 1017.30 1017.10 1016.89 1016.76
1015.28 1015.49 1015.76 1016.03 1016.07 1016.27 1016.45 1016.59 1016.68 1016.80 1016.85 1017.04 1017.12 1017.13 1017.14 1017.19 1017.69 1017.55 1017.60 1017.68 1017.61 1017.53 1017.70 1017.80 1017.76 1017.78 1017.53 1017.61 1017.56 1017.53 1017.47 1017.22 1017.06
1014.84 1015.21 1015.57 1015.86 1015.99 1016.40 1016.60 1016.81 1017.04 1017.05 1017.13 1017.12 1017.15 1017.33 1017.37 1017.33 1017.82 1017.92 1017.97 1018.12 1018.20 1018.17 1018.12 1018.19 1018.18 1018.10 1017.89 1017.81 1017.72 1017.64 1017.65 1017.48 1017.29
1014.96 1015.37 1015.84 1016.14 1016.40 1016.50 1016.77 1017.08 1017.24 1017.39 1017.41 1017.34 1017.23 1017.40 1017.50 1017.47 1017.75 1018.05 1018.19 1018.41 1018.55 1018.55 1018.66 1018.53 1018.53 1018.45 1018.18 1018.03 1017.91 1017.82 1017.73 1017.68 1017.45
1014.97 1015.72 1016.24 1016.45 1016.52 1016.72 1016.99 1017.21 1017.38 1017.69 1017.56 1017.59 1017.48 1017.39 1017.61 1017.65 1017.61 1018.08 1018.38 1018.60 1018.78 1018.73 1018.91 1018.87 1018.82 1018.72 1018.51 1018.26 1018.10 1018.01 1017.88 1017.81 1017.65
1015.11 1015.97 1016.36 1016.52 1016.70 1017.09 1017.45 1017.68 1017.84 1017.98 1017.99 1017.95 1017.62 1017.85 1017.65 1017.60 1017.79 1017.89 1018.46 1018.72 1018.90 1019.01 1019.00 1018.96 1018.88 1018.84 1018.67 1018.46 1018.29 1018.20 1018.15 1018.06 1017.78
1014.97 1015.67 1016.19 1016.63 1017.11 1017.43 1017.70 1017.90 1018.14 1018.41 1018.30 1018.03 1017.87 1017.88 1017.84 1017.72 1017.72 1018.11 1018.30 1018.52 1018.78 1019.00 1019.00 1018.97 1018.92 1018.88 1018.75 1018.55 1018.37 1018.33 1018.28 1018.15 1017.95
1015.24 1015.43 1016.14 1016.63 1017.43 1017.77 1017.95 1018.16 1018.25 1018.47 1018.59 1018.26 1017.99 1017.88 1017.94 1017.84 1018.02 1018.11 1018.06 1018.50 1018.70 1018.98 1019.09 1019.15 1019.17 1019.03 1018.96 1018.69 1018.52 1018.52 1018.35 1018.23 1018.14
1015.04 1015.53 1016.07 1016.63 1017.34 1017.83 1018.04 1018.30 1018.51 1018.84 1018.63 1018.53 1018.39 1018.28 1018.04 1018.08 1018.13 1018.08 1018.18 1018.45 1018.66 1018.84 1019.07 1019.15 1019.20 1019.25 1019.11 1019.00 1018.74 1018.54 1018.36 1018.39 1018.14
1014.46 1015.29 1016.10 1016.75 1017.33 1017.86 1018.22 1018.38 1018.75 1019.09 1019.06 1019.35 1019.37 1019.29 1018.94 1018.66 1018.31 1018.34 1018.46 1018.69 1018.71 1018.84 1018.85 1018.90 1018.97 1019.10 1019.16 1018.98 1018.68 1018.61 1018.51 1018.39 1018.16
1014.50 1015.15 1016.07 1016.83 1017.36 1017.95 1018.37 1018.61 1018.92 1019.30 1019.52 1019.30 1019.69 1019.73 1020.05 1019.77 1018.92 1018.71 1018.78 1018.84 1019.05 1018.92 1018.81 1018.75 1018.77 1018.83 1018.87 1018.78 1018.77 1018.68 1018.50 1018.38 1018.04
1014.75 1015.26 1016.04 1016.82 1017.45 1017.99 1018.41 1018.77 1019.05 1019.20 1019.74 1019.71 1019.67 1019.79 1020.09 1020.53 1020.38 1019.50 1019.20 1019.16 1019.27 1019.17 1018.98 1018.73 1018.59 1018.49 1018.52 1018.54 1018.51 1018.46 1018.25 1018.05 1017.72
1014.91 1015.26 1016.02 1017.01 1017.48 1018.07 1018.49 1018.91 1019.17 1019.37 1019.75 1020.02 1020.19 1020.24 1020.21 1020.38 1020.85 1020.45 1020.09 1019.77 1019.43 1019.29 1019.12 1018.88 1018.61 1018.28 1018.16 1018.24 1018.23 1018.14 1018.03 1017.85 1017.63
Wind_Speed
9 11 11 9 8 8 7 8 7 7 6 5 5 6 7 10 6 2 4 6 7 6 5 5 5 5 6 7 8 6 5 6 7
7 12 10 9 7 7 7 6 7 6 4 5 4 4 5 6 7 3 7 5 8 6 6 7 8 7 7 7 9 9 8 9 9
11 12 10 8 7 6 6 5 5 7 6 5 4 4 5 6 5 6 5 9 9 7 8 9 9 10 10 10 9 10 10 10 11
14 12 9 8 7 6 8 8 7 6 5 5 4 5 7 5 3 7 4 10 10 9 9 9 9 10 10 11 10 9 9 9 11
12 11 9 8 7 7 7 6 6 5 4 3 3 6 8 5 5 5 4 11 10 8 8 8 8 10 13 15 16 15 13 12 10
7 9 9 9 8 8 6 5 3 3 1 1 4 7 3 6 4 3 11 11 9 8 9 10 10 12 13 14 15 15 16 15 15
8 8 10 9 9 8 6 4 1 2 1 0 5 2 5 4 5 3 11 9 5 13 11 15 14 13 13 14 14 14 14 14 14
4 4 4 4 7 3 4 2 2 3 2 3 4 4 4 3 4 7 14 12 13 10 14 13 13 13 13 13 14 14 14 15 15
4 4 6 5 3 4 3 3 3 3 5 4 4 5 4 3 3 7 13 12 12 12 12 12 13 12 12 12 12 13 13 13 13
4 4 4 4 4 4 4 4 4 4 4 4 4 4 4 5 4 3 13 12 11 12 11 11 12 12 12 12 12 12 13 13 13
4 5 4 4 4 4 4 3 3 3 3 4 3 3 3 3 6 4 5 10 9 10 10 11 11 12 13 12 12 11 11 13 14
7 5 3 4 3 5 5 5 3 4 4 5 4 3 3 2 3 5 4 5 7 8 8 10 11 12 13 12 12 12 12 13 14
6 5 4 4 4 4 4 3 4 4 4 3 4 3 1 1 5 5 5 4 3 4 7 9 11 11 13 12 13 13 13 14 15
6 5 5 5 4 4 3 3 3 3 4 4 2 2 2 2 3 4 4 4 4 2 6 9 10 12 11 13 13 12 14 14 14
5 5 6 6 5 3 3 3 3 3 3 4 3 2 1 2 2 2 2 4 4 2 3 4 5 12 13 14 11 13 13 13 15
7 5 6 6 5 4 4 2 5 5 4 2 4 1 2 2 2 2 3 2 2 3 3 3 3 3 11 12 13 13 13 14 15
9 8 6 7 5 6 4 4 2 2 4 2 0 3 4 4 2 2 2 1 2 2 2 2 3 3 3 6 13 13 14 15 16
9 9 7 7 6 5 4 4 4 2 1 5 3 3 1 3 2 1 2 3 1 2 3 3 1 3 4 5 5 11 14 13 17
9 10 8 7 5 6 4 4 2 3 2 2 3 2 3 1 5 3 4 3 4 5 4 4 3 3 3 5 6 12 15 16 20
9 10 9 6 5 5 6 4 4 3 3 2 2 2 1 2 3 5 4 5 5 5 5 4 4 5 3 3 4 13 15 19 23
Wind_Direction
129 114 108 99 91 81 68 62 62 60 55 50 43 27 355 325 294 103 160 97 67 40 354 330 307 300 297 300 296 292 270 276 271
135 122 118 109 94 76 59 54 67 74 69 70 57 29 342 306 301 355 76 70 50 17 340 328 320 299 292 286 279 285 276 274 271
151 133 124 111 89 74 63 63 69 71 70 59 32 353 319 317 320 30 75 41 27 3 342 359 6 4 2 5 347 280 272 272 270
134 133 128 111 97 83 81 80 83 84 74 52 19 337 320 320 325 62 57 31 17 358 359 0 0 2 5 355 345 332 356 291 279
129 123 120 119 112 99 92 90 92 98 108 83 339 317 317 285 46 63 32 25 3 354 356 2 9 43 46 37 35 32 26 12 357
133 122 129 126 124 117 113 118 147 161 196 258 319 342 352 6 56 51 35 23 2 360 33 51 48 51 48 46 38 37 36 34 30
136 135 138 141 138 140 150 165 229 307 106 261 337 22 18 346 65 48 38 20 3 69 56 59 54 44 47 44 33 32 28 29 28
138 144 153 154 168 176 171 202 81 50 50 20 358 5 22 3 69 47 46 50 63 62 62 53 47 44 45 39 32 31 31 32 28
186 177 170 178 164 121 80 62 74 37 35 16 12 10 12 3 97 62 60 61 61 61 56 50 45 38 37 29 29 23 20 21 20
178 123 105 105 84 79 72 57 33 25 20 5 31 20 14 10 110 82 78 70 63 57 51 45 37 28 22 15 10 9 4 3 3
113 90 88 85 94 79 79 75 40 18 21 349 26 30 17 43 97 116 98 94 74 58 45 35 26 18 11 5 359 354 354 352 350
110 105 103 109 88 85 60 31 39 29 9 8 355 63 27 8 84 125 125 109 98 82 50 25 12 9 4 0 357 352 350 346 344
112 133 128 117 93 92 84 52 33 33 30 346 334 15 25 346 95 80 95 113 105 79 47 21 2 359 356 355 352 349 349 341 340
132 136 125 111 92 79 101 66 83 40 4 320 318 46 335 178 99 125 118 119 74 39 14 14 8 350 348 344 344 348 342 342 341
133 125 123 114 109 105 83 98 72 61 354 308 312 140 324 103 131 152 99 120 116 86 37 26 1 348 347 339 343 339 336 341 340
144 132 127 124 113 106 106 103 84 22 350 26 349 307 166 145 233 184 113 118 101 65 51 39 0 340 350 337 328 327 333 338 336
138 133 124 116 110 97 78 63 100 85 27 69 320 357 341 350 266 80 139 114 106 62 26 5 332 354 335 308 326 334 327 328 331
131 123 123 123 115 114 105 85 73 119 19 65 130 30 318 322 332 316 55 348 45 331 311 296 320 341 310 313 328 320 317 315 318
124 120 119 118 118 116 123 101 97 84 99 39 44 87 137 116 328 337 336 360 354 338 322 305 288 287 275 300 327 318 311 312 316
127 125 120 125 117 115 116 106 88 75 99 88 38 12 6 209 183 282 304 341 335 325 308 305 288 270 260 268 302 309 309 312 314